JBU14 EHAM-KBOS

Flight info

Callsign JBU14
Flight time N/A
Altitude 36000
Route BERGI L602 NALAX L46 GETNO DCT NIBOG DCT RESNO/M078F370 NATB ELSIR/N0451F380 DCT TUSKY DCT EURRO OOSHN5
Aircraft A20N/M-SDE2E3FGHIRWXY/LB1

Departure

Time 2026-05-08 03:57
Airport Amsterdam Airport Schiphol (EHAM)

Arrival

Time N/A
Airport Boston Logan International Airport (KBOS)
Time Latitude Longitude Altitude Speed Heading
2026-05-08 03:45 52.31365 4.76174 -3 ft 0 kts 178°
2026-05-08 03:47 52.31369 4.76174 -3 ft 0 kts 178°
2026-05-08 03:48 52.31375 4.76173 -3 ft 1 kts 178°
2026-05-08 03:49 52.31397 4.76173 -3 ft 3 kts 181°
2026-05-08 03:49 52.31420 4.76178 -3 ft 3 kts 208°
2026-05-08 03:49 52.31438 4.76203 -3 ft 3 kts 239°
2026-05-08 03:49 52.31444 4.76237 -3 ft 0 kts 269°
2026-05-08 03:50 52.31444 4.76233 -3 ft 0 kts 269°
2026-05-08 03:51 52.31444 4.76226 -3 ft 2 kts 269°
2026-05-08 03:51 52.31449 4.76189 -3 ft 5 kts 284°
2026-05-08 03:52 52.31452 4.76091 -3 ft 13 kts 266°
2026-05-08 03:52 52.31455 4.75944 -3 ft 13 kts 297°
2026-05-08 03:52 52.31525 4.75882 -3 ft 11 kts 294°
2026-05-08 03:52 52.31524 4.75748 -3 ft 13 kts 268°
2026-05-08 03:53 52.31518 4.75595 -3 ft 14 kts 266°
2026-05-08 03:53 52.31511 4.75422 -3 ft 16 kts 266°
2026-05-08 03:53 52.31505 4.75232 -3 ft 17 kts 266°
2026-05-08 03:53 52.31498 4.75028 -3 ft 19 kts 267°
2026-05-08 03:54 52.31493 4.74869 -3 ft 12 kts 266°
2026-05-08 03:54 52.31489 4.74722 -3 ft 13 kts 280°
2026-05-08 03:54 52.31550 4.74660 -3 ft 0 kts 359°
2026-05-08 03:55 52.31551 4.74660 -3 ft 1 kts 359°
2026-05-08 03:55 52.31574 4.74660 -2 ft 4 kts 358°
2026-05-08 03:55 52.31619 4.74658 -1 ft 10 kts
2026-05-08 03:55 52.31669 4.74758 -1 ft 13 kts 85°
2026-05-08 03:56 52.31670 4.74812 -2 ft 5 kts 86°
2026-05-08 03:56 52.31683 4.75235 -4 ft 75 kts 87°
2026-05-08 03:56 52.31725 4.76419 -3 ft 134 kts 85°
2026-05-08 03:56 52.31791 4.78194 154 ft 169 kts 87°
2026-05-08 03:57 52.32091 4.80027 909 ft 165 kts 54°
2026-05-08 03:57 52.33044 4.81049 1668 ft 170 kts 11°
2026-05-08 03:57 52.34259 4.80903 2137 ft 185 kts 345°
2026-05-08 03:57 52.35530 4.80228 2495 ft 205 kts 342°
2026-05-08 03:58 52.36979 4.79530 2749 ft 230 kts 346°
2026-05-08 03:58 52.38519 4.78969 3593 ft 223 kts 350°
2026-05-08 03:58 52.39995 4.78078 4131 ft 233 kts 322°
2026-05-08 03:58 52.41143 4.76160 4696 ft 242 kts 309°
2026-05-08 03:59 52.42227 4.73918 5066 ft 261 kts 308°
2026-05-08 03:59 52.43415 4.71589 5652 ft 269 kts 311°
2026-05-08 03:59 52.44683 4.69312 6445 ft 272 kts 313°
2026-05-08 03:59 52.46038 4.67123 7162 ft 276 kts 321°
2026-05-08 04:00 52.47664 4.65412 7844 ft 281 kts 334°
2026-05-08 04:00 52.49491 4.64215 8540 ft 286 kts 339°
2026-05-08 04:00 52.51366 4.63034 9251 ft 290 kts 338°
2026-05-08 04:00 52.53254 4.61823 9969 ft 294 kts 338°
2026-05-08 04:01 52.55181 4.60575 10454 ft 305 kts 338°
2026-05-08 04:01 52.57221 4.59247 10655 ft 326 kts 338°
2026-05-08 04:01 52.59388 4.57836 10917 ft 342 kts 338°
2026-05-08 04:01 52.61619 4.56384 11541 ft 346 kts 338°
2026-05-08 04:02 52.63859 4.54926 12228 ft 348 kts 337°
2026-05-08 04:02 52.66113 4.53395 12906 ft 350 kts 332°
2026-05-08 04:02 52.68140 4.51171 13553 ft 352 kts 317°
2026-05-08 04:02 52.69764 4.48169 14178 ft 352 kts 303°
2026-05-08 04:03 52.71144 4.44826 14776 ft 354 kts 303°
2026-05-08 04:03 52.73954 4.38095 15959 ft 359 kts 303°
2026-05-08 04:03 52.75315 4.34637 16532 ft 361 kts 298°
2026-05-08 04:04 52.76544 4.30991 17112 ft 363 kts 298°
2026-05-08 04:04 52.77780 4.27347 17690 ft 365 kts 298°
2026-05-08 04:04 52.79028 4.23675 18262 ft 368 kts 297°
2026-05-08 04:04 52.80269 4.20019 18755 ft 370 kts 297°
2026-05-08 04:05 52.81526 4.16307 19265 ft 372 kts 297°
2026-05-08 04:05 52.82790 4.12568 19755 ft 374 kts 297°
2026-05-08 04:05 52.84060 4.08807 20243 ft 376 kts 297°
2026-05-08 04:05 52.85334 4.05024 20731 ft 378 kts 297°
2026-05-08 04:06 52.86619 4.01207 21196 ft 380 kts 297°
2026-05-08 04:06 52.87907 3.97371 21668 ft 382 kts 297°
2026-05-08 04:06 52.89202 3.93511 22135 ft 385 kts 297°
2026-05-08 04:06 52.90505 3.89620 22598 ft 387 kts 297°
2026-05-08 04:07 52.91814 3.85704 23055 ft 389 kts 297°
2026-05-08 04:07 52.93126 3.81772 23495 ft 392 kts 297°
2026-05-08 04:07 52.94448 3.77805 23897 ft 394 kts 297°
2026-05-08 04:07 52.95776 3.73815 24274 ft 396 kts 297°
2026-05-08 04:08 52.97105 3.69814 24642 ft 398 kts 297°
2026-05-08 04:08 52.98444 3.65779 25009 ft 400 kts 297°
2026-05-08 04:08 52.99787 3.61726 25369 ft 401 kts 297°
2026-05-08 04:08 53.01137 3.57646 25716 ft 403 kts 297°
2026-05-08 04:09 53.02487 3.53556 26057 ft 405 kts 297°
2026-05-08 04:09 53.03843 3.49439 26402 ft 407 kts 297°
2026-05-08 04:09 53.05203 3.45302 26729 ft 409 kts 297°
2026-05-08 04:09 53.06567 3.41142 27047 ft 410 kts 297°
2026-05-08 04:10 53.07936 3.36961 27355 ft 412 kts 297°
2026-05-08 04:10 53.09251 3.32723 27671 ft 413 kts 292°
2026-05-08 04:10 53.10279 3.28255 27965 ft 413 kts 286°
2026-05-08 04:10 53.10994 3.23625 28243 ft 414 kts 281°
2026-05-08 04:11 53.11606 3.18922 28512 ft 416 kts 281°
2026-05-08 04:11 53.12233 3.14211 28792 ft 418 kts 281°
2026-05-08 04:11 53.12866 3.09476 29058 ft 419 kts 281°
2026-05-08 04:11 53.13497 3.04725 29320 ft 421 kts 281°
2026-05-08 04:12 53.14128 2.99947 29563 ft 423 kts 281°
2026-05-08 04:12 53.14755 2.95169 29818 ft 424 kts 281°
2026-05-08 04:12 53.15384 2.90362 30066 ft 426 kts 281°
2026-05-08 04:12 53.16013 2.85527 30294 ft 427 kts 281°
2026-05-08 04:13 53.16641 2.80684 30498 ft 429 kts 281°
2026-05-08 04:13 53.17262 2.75883 30702 ft 430 kts 281°
2026-05-08 04:13 53.17901 2.70928 30902 ft 432 kts 281°
2026-05-08 04:13 53.18523 2.66088 31110 ft 434 kts 281°
2026-05-08 04:14 53.19152 2.61167 31338 ft 434 kts 281°
2026-05-08 04:14 53.19780 2.56248 31600 ft 434 kts 281°
2026-05-08 04:14 53.20405 2.51333 31873 ft 433 kts 281°
2026-05-08 04:14 53.21028 2.46411 32136 ft 433 kts 281°
2026-05-08 04:15 53.21646 2.41506 32376 ft 433 kts 281°
2026-05-08 04:15 53.22264 2.36591 32622 ft 432 kts 281°
2026-05-08 04:15 53.22880 2.31676 32862 ft 432 kts 281°
2026-05-08 04:15 53.23493 2.26770 33080 ft 432 kts 281°
2026-05-08 04:16 53.24103 2.21861 33303 ft 432 kts 281°
2026-05-08 04:16 53.24712 2.16947 33527 ft 432 kts 281°
2026-05-08 04:16 53.25317 2.12048 33741 ft 431 kts 281°
2026-05-08 04:16 53.25921 2.07141 33945 ft 431 kts 281°
2026-05-08 04:17 53.26523 2.02228 34115 ft 431 kts 281°
2026-05-08 04:17 53.27123 1.97318 34264 ft 432 kts 281°
2026-05-08 04:17 53.27720 1.92408 34404 ft 432 kts 280°
2026-05-08 04:17 53.28317 1.87485 34539 ft 432 kts 280°
2026-05-08 04:18 53.28913 1.82552 34654 ft 433 kts 280°
2026-05-08 04:18 53.29507 1.77623 34777 ft 433 kts 280°
2026-05-08 04:18 53.30100 1.72677 34901 ft 434 kts 280°
2026-05-08 04:18 53.30691 1.67728 35023 ft 434 kts 280°
2026-05-08 04:19 53.31281 1.62773 35134 ft 435 kts 280°
2026-05-08 04:19 53.31870 1.57808 35245 ft 435 kts 280°
2026-05-08 04:19 53.32455 1.52851 35375 ft 435 kts 280°
2026-05-08 04:19 53.33063 1.47895 35473 ft 436 kts 282°
2026-05-08 04:20 53.34517 1.38042 35675 ft 436 kts 283°
2026-05-08 04:20 53.35251 1.33173 35777 ft 437 kts 283°
2026-05-08 04:20 53.35979 1.28245 35876 ft 437 kts 282°
2026-05-08 04:21 53.37412 1.18356 36060 ft 437 kts 282°
2026-05-08 04:21 53.38828 1.08445 36096 ft 437 kts 282°
2026-05-08 04:22 53.40234 0.98538 36088 ft 437 kts 282°
2026-05-08 04:22 53.41633 0.88615 36090 ft 438 kts 282°
2026-05-08 04:23 53.43026 0.78674 36091 ft 438 kts 282°
2026-05-08 04:23 53.44411 0.68730 36085 ft 438 kts 282°
2026-05-08 04:24 53.45789 0.58764 36081 ft 438 kts 282°
2026-05-08 04:24 53.47158 0.48796 36080 ft 438 kts 282°
2026-05-08 04:25 53.48291 0.40499 36075 ft 439 kts 282°
2026-05-08 04:25 53.49647 0.30512 36079 ft 439 kts 282°
2026-05-08 04:26 53.50993 0.20518 36072 ft 439 kts 282°
2026-05-08 04:26 53.52334 0.10498 36076 ft 439 kts 282°
2026-05-08 04:27 53.53665 0.00475 36074 ft 440 kts 281°
2026-05-08 04:27 53.54989 -0.09556 36079 ft 440 kts 281°
2026-05-08 04:28 53.56306 -0.19601 36081 ft 440 kts 281°
2026-05-08 04:28 53.57614 -0.29656 36083 ft 440 kts 281°
2026-05-08 04:29 53.58913 -0.39706 36083 ft 440 kts 281°
2026-05-08 04:29 53.60201 -0.49750 36086 ft 440 kts 281°
2026-05-08 04:30 53.61479 -0.59779 36079 ft 440 kts 281°
2026-05-08 04:30 53.62752 -0.69846 36076 ft 439 kts 281°
2026-05-08 04:31 53.64016 -0.79913 36068 ft 439 kts 281°
2026-05-08 04:31 53.65271 -0.89985 36062 ft 439 kts 281°
2026-05-08 04:32 53.66525 -1.00119 36057 ft 438 kts 281°
2026-05-08 04:32 53.67761 -1.10184 36052 ft 438 kts 281°
2026-05-08 04:33 53.68988 -1.20252 36050 ft 438 kts 281°
2026-05-08 04:33 53.70198 -1.30255 36047 ft 438 kts 281°
2026-05-08 04:34 53.71407 -1.40320 36045 ft 437 kts 281°
2026-05-08 04:34 53.72607 -1.50387 36044 ft 437 kts 281°
2026-05-08 04:35 53.73794 -1.60458 36042 ft 437 kts 280°
2026-05-08 04:35 53.74899 -1.70567 36043 ft 437 kts 279°
2026-05-08 04:36 53.75986 -1.80674 36043 ft 437 kts 279°
2026-05-08 04:36 53.77075 -1.90784 36044 ft 437 kts 280°
2026-05-08 04:37 53.78175 -2.00899 36044 ft 437 kts 280°
2026-05-08 04:37 53.79254 -2.11025 36046 ft 438 kts 280°
2026-05-08 04:38 53.80316 -2.21156 36043 ft 438 kts 279°
2026-05-08 04:38 53.81371 -2.31317 36045 ft 438 kts 279°
2026-05-08 04:39 53.82416 -2.41466 36045 ft 438 kts 279°
2026-05-08 04:39 53.83454 -2.51634 36045 ft 438 kts 279°
2026-05-08 04:40 53.84485 -2.61808 36047 ft 438 kts 279°
2026-05-08 04:40 53.85506 -2.71980 36044 ft 438 kts 279°
2026-05-08 04:41 53.86519 -2.82162 36045 ft 438 kts 279°
2026-05-08 04:41 53.87522 -2.92328 36041 ft 438 kts 279°
2026-05-08 04:42 53.88517 -3.02506 36038 ft 437 kts 279°
2026-05-08 04:42 53.89502 -3.12670 36028 ft 435 kts 279°
2026-05-08 04:43 53.90467 -3.22719 36030 ft 434 kts 279°
2026-05-08 04:43 53.91429 -3.32820 36026 ft 434 kts 278°
2026-05-08 04:44 53.92381 -3.42918 36027 ft 433 kts 278°
2026-05-08 04:44 53.93635 -3.52914 36027 ft 434 kts 287°
2026-05-08 04:45 53.95548 -3.62678 36025 ft 432 kts 287°
2026-05-08 04:45 53.97431 -3.72370 36020 ft 433 kts 287°
2026-05-08 04:46 53.99306 -3.82031 36022 ft 433 kts 287°
2026-05-08 04:46 54.01185 -3.91756 36018 ft 432 kts 287°
2026-05-08 04:47 54.03047 -4.01471 36018 ft 433 kts 287°
2026-05-08 04:47 54.04904 -4.11219 36016 ft 432 kts 287°
2026-05-08 04:48 54.06749 -4.20956 36016 ft 432 kts 287°
2026-05-08 04:48 54.08586 -4.30695 36016 ft 433 kts 287°
2026-05-08 04:49 54.10418 -4.40465 36017 ft 433 kts 287°
2026-05-08 04:49 54.12243 -4.50241 36018 ft 433 kts 287°
2026-05-08 04:50 54.14063 -4.60044 36020 ft 434 kts 287°
2026-05-08 04:50 54.15874 -4.69849 36017 ft 433 kts 287°
2026-05-08 04:51 54.17678 -4.79671 36015 ft 433 kts 287°
2026-05-08 04:51 54.19473 -4.89495 36011 ft 433 kts 286°
2026-05-08 04:52 54.21257 -4.99310 36011 ft 433 kts 286°
2026-05-08 04:52 54.23035 -5.09143 36005 ft 433 kts 286°
2026-05-08 04:53 54.24805 -5.18984 36001 ft 433 kts 286°
2026-05-08 04:53 54.26566 -5.28828 35999 ft 433 kts 286°
2026-05-08 04:54 54.28319 -5.38684 36004 ft 433 kts 286°
2026-05-08 04:54 54.30065 -5.48549 36002 ft 433 kts 285°
2026-05-08 04:55 54.31801 -5.58416 36001 ft 433 kts 285°
2026-05-08 04:55 54.33520 -5.68238 36004 ft 433 kts 285°
2026-05-08 04:56 54.35244 -5.78142 36005 ft 433 kts 285°
2026-05-08 04:56 54.36958 -5.88043 36007 ft 433 kts 285°
2026-05-08 04:57 54.38663 -5.97948 36009 ft 433 kts 285°
2026-05-08 04:57 54.40362 -6.07874 36009 ft 433 kts 285°
2026-05-08 04:58 54.42050 -6.17792 36010 ft 433 kts 285°
2026-05-08 04:58 54.43732 -6.27733 36025 ft 433 kts 285°
2026-05-08 04:59 54.45406 -6.37679 36027 ft 433 kts 285°
2026-05-08 04:59 54.47070 -6.47626 36022 ft 433 kts 284°
2026-05-08 05:00 54.48725 -6.57575 36023 ft 432 kts 284°
2026-05-08 05:00 54.50372 -6.67531 36017 ft 432 kts 284°
2026-05-08 05:01 54.52007 -6.77470 36018 ft 432 kts 284°
2026-05-08 05:01 54.53634 -6.87423 36016 ft 431 kts 284°
2026-05-08 05:02 54.55249 -6.97356 36012 ft 431 kts 284°
2026-05-08 05:02 54.56857 -7.07308 36012 ft 431 kts 284°
2026-05-08 05:03 54.58454 -7.17250 36015 ft 430 kts 284°
2026-05-08 05:03 54.60044 -7.27202 36013 ft 430 kts 284°
2026-05-08 05:04 54.61625 -7.37158 36011 ft 430 kts 283°
2026-05-08 05:04 54.63197 -7.47115 36008 ft 430 kts 283°
2026-05-08 05:05 54.64763 -7.57099 36019 ft 431 kts 283°
2026-05-08 05:05 54.66308 -7.67008 36027 ft 430 kts 283°
2026-05-08 05:06 54.67854 -7.76983 36023 ft 430 kts 283°
2026-05-08 05:06 54.69392 -7.86960 36021 ft 429 kts 283°
2026-05-08 05:07 54.70919 -7.96934 36016 ft 428 kts 283°
2026-05-08 05:07 54.72435 -8.06894 36015 ft 428 kts 282°
2026-05-08 05:08 54.73939 -8.16832 35999 ft 427 kts 282°
2026-05-08 05:08 54.75432 -8.26765 36008 ft 426 kts 282°
2026-05-08 05:09 54.76916 -8.36696 36005 ft 426 kts 282°
2026-05-08 05:09 54.78389 -8.46618 36012 ft 425 kts 282°
2026-05-08 05:10 54.80583 -8.61507 36002 ft 425 kts 282°
2026-05-08 05:11 54.81790 -8.69761 36003 ft 425 kts 281°
2026-05-08 05:11 54.83233 -8.79687 36000 ft 425 kts 281°
2026-05-08 05:12 54.84670 -8.89630 36009 ft 425 kts 281°
2026-05-08 05:12 54.86097 -8.99571 36013 ft 425 kts 281°
2026-05-08 05:13 54.87517 -9.09524 36022 ft 425 kts 281°
2026-05-08 05:13 54.88928 -9.19477 36026 ft 425 kts 281°
2026-05-08 05:14 54.90334 -9.29463 36027 ft 425 kts 281°
2026-05-08 05:14 54.91731 -9.39444 36029 ft 425 kts 280°
2026-05-08 05:15 54.93117 -9.49414 36036 ft 425 kts 280°
2026-05-08 05:15 54.94496 -9.59402 36031 ft 424 kts 280°
2026-05-08 05:16 54.95865 -9.69388 36034 ft 424 kts 280°
2026-05-08 05:16 54.97228 -9.79362 36035 ft 424 kts 280°
2026-05-08 05:17 54.98586 -9.89340 36037 ft 423 kts 280°
2026-05-08 05:17 54.99727 -9.99297 36032 ft 421 kts 275°
2026-05-08 05:18 55.00185 -10.09405 36031 ft 417 kts 268°
2026-05-08 05:18 55.00361 -10.19509 36025 ft 417 kts 269°
2026-05-08 05:19 55.00568 -10.29616 36031 ft 417 kts 269°
2026-05-08 05:19 55.00755 -10.39698 36031 ft 416 kts 269°
2026-05-08 05:20 55.00926 -10.49798 36028 ft 416 kts 269°
2026-05-08 05:20 55.01087 -10.59865 36025 ft 416 kts 268°
2026-05-08 05:21 55.01240 -10.69944 36026 ft 416 kts 268°
2026-05-08 05:21 55.01384 -10.79998 36028 ft 416 kts 268°
2026-05-08 05:22 55.01520 -10.90070 36026 ft 416 kts 268°
2026-05-08 05:22 55.01648 -11.00132 36169 ft 416 kts 268°
2026-05-08 05:22 55.01708 -11.05181 36046 ft 416 kts 268°
2026-05-08 05:23 55.01767 -11.10230 36042 ft 416 kts 268°
2026-05-08 05:23 55.01879 -11.20340 36038 ft 418 kts 268°
2026-05-08 05:24 55.01982 -11.30464 36043 ft 418 kts 268°
2026-05-08 05:24 55.02077 -11.40600 36041 ft 418 kts 268°
2026-05-08 05:25 55.02163 -11.50699 36047 ft 419 kts 268°
2026-05-08 05:25 55.02241 -11.60848 36046 ft 419 kts 268°
2026-05-08 05:26 55.02311 -11.71028 36047 ft 420 kts 268°
2026-05-08 05:26 55.02373 -11.81209 36050 ft 420 kts 268°
2026-05-08 05:27 55.02426 -11.91397 36054 ft 421 kts 268°
2026-05-08 05:27 55.02470 -12.01597 36054 ft 421 kts 268°
2026-05-08 05:28 55.02506 -12.11810 36053 ft 421 kts 268°
2026-05-08 05:28 55.02534 -12.22032 36060 ft 422 kts 268°
2026-05-08 05:29 55.02553 -12.32259 36059 ft 422 kts 268°
2026-05-08 05:29 55.02563 -12.42491 36060 ft 422 kts 268°
2026-05-08 05:30 55.02565 -12.52732 36065 ft 422 kts 268°
2026-05-08 05:30 55.02559 -12.62975 36065 ft 423 kts 268°
2026-05-08 05:31 55.02544 -12.73219 36066 ft 423 kts 268°
2026-05-08 05:31 55.02520 -12.83459 36070 ft 423 kts 267°
2026-05-08 05:32 55.02487 -12.93716 36067 ft 423 kts 267°
2026-05-08 05:32 55.02446 -13.03966 36070 ft 423 kts 267°
2026-05-08 05:33 55.02396 -13.14212 36069 ft 423 kts 267°
2026-05-08 05:33 55.02338 -13.24467 36073 ft 423 kts 267°
2026-05-08 05:34 55.02271 -13.34724 36072 ft 424 kts 267°
2026-05-08 05:34 55.02195 -13.44996 36070 ft 424 kts 267°
2026-05-08 05:35 55.02111 -13.55271 36076 ft 424 kts 267°
2026-05-08 05:35 55.02018 -13.65545 36077 ft 424 kts 267°
2026-05-08 05:36 55.01916 -13.75833 36078 ft 424 kts 267°
2026-05-08 05:36 55.01806 -13.86111 36080 ft 425 kts 267°
2026-05-08 05:37 55.01687 -13.96401 36083 ft 425 kts 267°
2026-05-08 05:37 55.01558 -14.06710 36085 ft 425 kts 267°
2026-05-08 05:38 55.01422 -14.17010 36087 ft 426 kts 266°
2026-05-08 05:38 55.01276 -14.27310 36089 ft 426 kts 266°
2026-05-08 05:39 55.01122 -14.37633 36087 ft 426 kts 266°
2026-05-08 05:39 55.00958 -14.47960 36088 ft 426 kts 266°
2026-05-08 05:40 55.00786 -14.58288 36091 ft 427 kts 266°
2026-05-08 05:40 55.00606 -14.68564 36092 ft 427 kts 266°
2026-05-08 05:41 55.00415 -14.78980 36094 ft 428 kts 266°
2026-05-08 05:41 55.00220 -14.89332 36094 ft 428 kts 266°
2026-05-08 05:42 55.00020 -14.99697 36100 ft 428 kts 266°
2026-05-08 05:42 55.00087 -15.10018 36097 ft 430 kts 271°
2026-05-08 05:43 55.00362 -15.20421 36104 ft 430 kts 270°
2026-05-08 05:43 55.00590 -15.30839 36106 ft 430 kts 270°
2026-05-08 05:44 55.00779 -15.41262 36107 ft 431 kts 270°
2026-05-08 05:44 55.00953 -15.51700 36115 ft 431 kts 270°
2026-05-08 05:45 55.01118 -15.62149 36110 ft 432 kts 270°
2026-05-08 05:45 55.01275 -15.72615 36111 ft 432 kts 270°
2026-05-08 05:46 55.01423 -15.83086 36115 ft 433 kts 270°
2026-05-08 05:46 55.01562 -15.93563 36117 ft 433 kts 270°
2026-05-08 05:47 55.01692 -16.04067 36122 ft 433 kts 270°
2026-05-08 05:47 55.01813 -16.14573 36127 ft 434 kts 270°
2026-05-08 05:48 55.01925 -16.25089 36123 ft 434 kts 270°
2026-05-08 05:48 55.02028 -16.35607 36125 ft 435 kts 270°
2026-05-08 05:49 55.02123 -16.46148 36132 ft 435 kts 270°
2026-05-08 05:49 55.02208 -16.56694 36131 ft 435 kts 270°
2026-05-08 05:50 55.02284 -16.67248 36140 ft 436 kts 270°
2026-05-08 05:50 55.02351 -16.77808 36144 ft 436 kts 270°
2026-05-08 05:51 55.02409 -16.88374 36142 ft 436 kts 270°
2026-05-08 05:51 55.02458 -16.98956 36137 ft 436 kts 270°
2026-05-08 05:52 55.02498 -17.09535 36143 ft 436 kts 270°
2026-05-08 05:52 55.02528 -17.20046 36149 ft 436 kts 270°
2026-05-08 05:53 55.02550 -17.30611 36144 ft 436 kts 270°
2026-05-08 05:53 55.02562 -17.41188 36148 ft 436 kts 270°
2026-05-08 05:54 55.02565 -17.51766 36149 ft 436 kts 269°
2026-05-08 05:54 55.02558 -17.62335 36149 ft 436 kts 269°
2026-05-08 05:55 55.02543 -17.72926 36157 ft 437 kts 269°
2026-05-08 05:55 55.02518 -17.83499 36151 ft 437 kts 269°
2026-05-08 05:56 55.02491 -17.92298 36150 ft 437 kts 269°
2026-05-08 05:56 55.02450 -18.02890 36151 ft 437 kts 269°
2026-05-08 05:57 55.02399 -18.13483 36166 ft 437 kts 269°
2026-05-08 05:57 55.02339 -18.24080 36166 ft 437 kts 269°
2026-05-08 05:58 55.02270 -18.34692 36158 ft 437 kts 269°
2026-05-08 05:58 55.02191 -18.45294 36157 ft 438 kts 269°
2026-05-08 05:59 55.02104 -18.55901 36167 ft 438 kts 269°
2026-05-08 05:59 55.02007 -18.66516 36177 ft 438 kts 269°
2026-05-08 06:00 55.01901 -18.77117 36168 ft 438 kts 269°
2026-05-08 06:00 55.01786 -18.87752 36180 ft 439 kts 269°
2026-05-08 06:01 55.01661 -18.98378 36173 ft 439 kts 269°
2026-05-08 06:01 55.01527 -19.09009 36180 ft 439 kts 269°
2026-05-08 06:02 55.01383 -19.19645 36178 ft 439 kts 269°
2026-05-08 06:02 55.01231 -19.30287 36175 ft 440 kts 269°
2026-05-08 06:03 55.01070 -19.40878 36180 ft 440 kts 269°
2026-05-08 06:03 55.00898 -19.51521 36187 ft 439 kts 269°
2026-05-08 06:04 55.00717 -19.62167 36186 ft 441 kts 269°
2026-05-08 06:04 55.00527 -19.72844 36189 ft 440 kts 269°
2026-05-08 06:05 55.00328 -19.83496 36194 ft 441 kts 269°
2026-05-08 06:05 55.00125 -19.94181 36196 ft 442 kts 269°
2026-05-08 06:06 54.99716 -20.04855 36201 ft 443 kts 265°
2026-05-08 06:06 54.99057 -20.15525 36204 ft 443 kts 266°
2026-05-08 06:07 54.98440 -20.26217 36206 ft 444 kts 266°
2026-05-08 06:07 54.97816 -20.36912 36204 ft 444 kts 266°
2026-05-08 06:08 54.97179 -20.47607 36208 ft 445 kts 266°
2026-05-08 06:08 54.96530 -20.58321 36207 ft 445 kts 266°
2026-05-08 06:09 54.95865 -20.69048 36213 ft 446 kts 265°
2026-05-08 06:09 54.95187 -20.79787 36216 ft 447 kts 265°
2026-05-08 06:10 54.94497 -20.90540 36222 ft 448 kts 265°
2026-05-08 06:10 54.93797 -21.01311 36222 ft 448 kts 265°
2026-05-08 06:11 54.93087 -21.12085 36229 ft 449 kts 265°
2026-05-08 06:11 54.92366 -21.22869 36229 ft 449 kts 265°
2026-05-08 06:12 54.91635 -21.33662 36230 ft 450 kts 265°
2026-05-08 06:12 54.90893 -21.44462 36232 ft 450 kts 265°
2026-05-08 06:13 54.90142 -21.55260 36235 ft 450 kts 265°
2026-05-08 06:13 54.89385 -21.66002 36234 ft 450 kts 265°
2026-05-08 06:14 54.88615 -21.76791 36234 ft 450 kts 265°
2026-05-08 06:14 54.87834 -21.87585 36236 ft 450 kts 265°
2026-05-08 06:15 54.87044 -21.98375 36234 ft 450 kts 265°
2026-05-08 06:15 54.86244 -22.09163 36238 ft 450 kts 265°
2026-05-08 06:16 54.85435 -22.19946 36239 ft 450 kts 266°
2026-05-08 06:16 54.84616 -22.30726 36234 ft 451 kts 265°
2026-05-08 06:17 54.83370 -22.46896 36238 ft 451 kts 266°
2026-05-08 06:17 54.82526 -22.57669 36239 ft 451 kts 266°
2026-05-08 06:18 54.81673 -22.68454 36237 ft 451 kts 266°
2026-05-08 06:18 54.80810 -22.79221 36240 ft 451 kts 266°
2026-05-08 06:19 54.79937 -22.90002 36246 ft 452 kts 266°
2026-05-08 06:19 54.79053 -23.00790 36247 ft 452 kts 266°
2026-05-08 06:20 54.78159 -23.11576 36246 ft 453 kts 266°
2026-05-08 06:20 54.77261 -23.22299 36256 ft 453 kts 266°
2026-05-08 06:21 54.76345 -23.33107 36265 ft 453 kts 266°
2026-05-08 06:21 54.75420 -23.43911 36259 ft 454 kts 266°
2026-05-08 06:22 54.74485 -23.54717 36262 ft 454 kts 266°
2026-05-08 06:22 54.73538 -23.65531 36268 ft 454 kts 266°
2026-05-08 06:23 54.72582 -23.76344 36269 ft 455 kts 266°
2026-05-08 06:23 54.71617 -23.87153 36271 ft 455 kts 266°
2026-05-08 06:24 54.70641 -23.97961 36277 ft 455 kts 266°
2026-05-08 06:24 54.69654 -24.08774 36281 ft 455 kts 266°
2026-05-08 06:25 54.68657 -24.19592 36280 ft 455 kts 266°
2026-05-08 06:25 54.67651 -24.30401 36281 ft 455 kts 266°
2026-05-08 06:26 54.66636 -24.41203 36283 ft 455 kts 266°
2026-05-08 06:26 54.65617 -24.51936 36284 ft 455 kts 266°
2026-05-08 06:27 54.64583 -24.62718 36291 ft 455 kts 266°
2026-05-08 06:27 54.63538 -24.73505 36292 ft 455 kts 266°
2026-05-08 06:28 54.62484 -24.84280 36295 ft 455 kts 266°
2026-05-08 06:28 54.61421 -24.95056 36299 ft 455 kts 266°
2026-05-08 06:29 54.60348 -25.05821 36297 ft 455 kts 266°
2026-05-08 06:29 54.59266 -25.16580 36299 ft 455 kts 266°
2026-05-08 06:30 54.58175 -25.27328 36299 ft 455 kts 266°
2026-05-08 06:30 54.57074 -25.38069 36301 ft 455 kts 266°
2026-05-08 06:31 54.55964 -25.48803 36307 ft 455 kts 266°
2026-05-08 06:31 54.54844 -25.59531 36310 ft 455 kts 266°
2026-05-08 06:32 54.53716 -25.70250 36321 ft 455 kts 266°
2026-05-08 06:32 54.52576 -25.80976 36316 ft 455 kts 266°
2026-05-08 06:33 54.51428 -25.91692 36316 ft 455 kts 266°
2026-05-08 06:33 54.50269 -26.02404 36319 ft 455 kts 266°
2026-05-08 06:34 54.49102 -26.13102 36322 ft 455 kts 266°
2026-05-08 06:34 54.47925 -26.23804 36325 ft 455 kts 266°
2026-05-08 06:35 54.46738 -26.34497 36328 ft 455 kts 266°
2026-05-08 06:35 54.45543 -26.45180 36331 ft 455 kts 266°
2026-05-08 06:36 54.44345 -26.55794 36339 ft 455 kts 266°
2026-05-08 06:36 54.43131 -26.66459 36331 ft 455 kts 266°
2026-05-08 06:37 54.41906 -26.77127 36332 ft 455 kts 267°
2026-05-08 06:37 54.40673 -26.87788 36336 ft 455 kts 267°
2026-05-08 06:38 54.39428 -26.98453 36341 ft 455 kts 267°
2026-05-08 06:38 54.38176 -27.09101 36347 ft 455 kts 267°
2026-05-08 06:39 54.36914 -27.19747 36346 ft 455 kts 267°
2026-05-08 06:39 54.35643 -27.30382 36351 ft 455 kts 267°
2026-05-08 06:40 54.34362 -27.41021 36350 ft 456 kts 267°
2026-05-08 06:40 54.33071 -27.51643 36356 ft 456 kts 267°
2026-05-08 06:41 54.31770 -27.62272 36356 ft 456 kts 267°
2026-05-08 06:41 54.30462 -27.72884 36361 ft 456 kts 267°
2026-05-08 06:42 54.29142 -27.83505 36364 ft 456 kts 267°
2026-05-08 06:42 54.28038 -27.92322 36369 ft 456 kts 267°
2026-05-08 06:43 54.26703 -28.02921 36373 ft 456 kts 267°
2026-05-08 06:43 54.25357 -28.13514 36370 ft 456 kts 267°
2026-05-08 06:44 54.24003 -28.24100 36374 ft 455 kts 267°
2026-05-08 06:44 54.22641 -28.34667 36374 ft 455 kts 266°
2026-05-08 06:45 54.21269 -28.45234 36379 ft 455 kts 266°
2026-05-08 06:45 54.19890 -28.55775 36384 ft 455 kts 266°
2026-05-08 06:46 54.18504 -28.66301 36384 ft 454 kts 266°
2026-05-08 06:46 54.17108 -28.76825 36383 ft 454 kts 266°
2026-05-08 06:47 54.15704 -28.87329 36383 ft 454 kts 266°
2026-05-08 06:47 54.14294 -28.97802 36385 ft 453 kts 266°
2026-05-08 06:48 54.12876 -29.08262 36387 ft 453 kts 265°
2026-05-08 06:48 54.11449 -29.18708 36388 ft 452 kts 265°
2026-05-08 06:49 54.10016 -29.29133 36388 ft 452 kts 265°
2026-05-08 06:49 54.08574 -29.39543 36393 ft 451 kts 265°
2026-05-08 06:50 54.07124 -29.49939 36391 ft 451 kts 265°
2026-05-08 06:50 54.05670 -29.60308 36401 ft 450 kts 265°
2026-05-08 06:51 54.04214 -29.70657 36394 ft 450 kts 265°
2026-05-08 06:51 54.02752 -29.80991 36396 ft 449 kts 264°
2026-05-08 06:52 54.01293 -29.91244 36396 ft 449 kts 264°
2026-05-08 06:52 53.99793 -30.01531 36398 ft 449 kts 263°
2026-05-08 06:53 53.98158 -30.11787 36406 ft 448 kts 263°
2026-05-08 06:53 53.96619 -30.22040 36406 ft 448 kts 263°
2026-05-08 06:54 53.95075 -30.32282 36408 ft 447 kts 263°
2026-05-08 06:54 53.93516 -30.42496 36410 ft 447 kts 263°
2026-05-08 06:55 53.91947 -30.52694 36412 ft 446 kts 263°
2026-05-08 06:55 53.90371 -30.62861 36411 ft 446 kts 263°
2026-05-08 06:56 53.88782 -30.73015 36413 ft 445 kts 262°
2026-05-08 06:56 53.87182 -30.83160 36410 ft 445 kts 262°
2026-05-08 06:57 53.85578 -30.93274 36418 ft 445 kts 262°
2026-05-08 06:57 53.83966 -31.03380 36415 ft 444 kts 262°
2026-05-08 06:58 53.82345 -31.13478 36416 ft 444 kts 262°
2026-05-08 06:58 53.80717 -31.23558 36416 ft 444 kts 261°
2026-05-08 06:59 53.79080 -31.33633 36413 ft 444 kts 261°
2026-05-08 06:59 53.77435 -31.43702 36415 ft 444 kts 261°
2026-05-08 07:00 53.75782 -31.53758 36419 ft 444 kts 261°
2026-05-08 07:00 53.74128 -31.63761 36420 ft 445 kts 261°
2026-05-08 07:01 53.72445 -31.73878 36417 ft 445 kts 260°
2026-05-08 07:01 53.70762 -31.83939 36422 ft 445 kts 260°
2026-05-08 07:02 53.69071 -31.93986 36437 ft 445 kts 260°
2026-05-08 07:02 53.67380 -32.03976 36431 ft 445 kts 260°
2026-05-08 07:03 53.65673 -32.14006 36431 ft 445 kts 260°
2026-05-08 07:03 53.63956 -32.24032 36443 ft 445 kts 259°
2026-05-08 07:04 53.62233 -32.34039 36432 ft 443 kts 260°
2026-05-08 07:04 53.60511 -32.43978 36428 ft 442 kts 260°
2026-05-08 07:05 53.58786 -32.53891 36433 ft 441 kts 260°
2026-05-08 07:05 53.57052 -32.63789 36435 ft 440 kts 260°
2026-05-08 07:06 53.55315 -32.73654 36435 ft 439 kts 260°
2026-05-08 07:06 53.53573 -32.83486 36433 ft 439 kts 260°
2026-05-08 07:07 53.51826 -32.93298 36438 ft 438 kts 260°
2026-05-08 07:07 53.50074 -33.03086 36434 ft 437 kts 260°
2026-05-08 07:08 53.48318 -33.12841 36438 ft 436 kts 260°
2026-05-08 07:08 53.46568 -33.22514 36442 ft 435 kts 260°
2026-05-08 07:09 53.44792 -33.32276 36441 ft 434 kts 260°
2026-05-08 07:09 53.43034 -33.41890 36442 ft 433 kts 260°
2026-05-08 07:10 53.41262 -33.51533 36439 ft 432 kts 260°
2026-05-08 07:10 53.39486 -33.61144 36438 ft 431 kts 260°
2026-05-08 07:11 53.37707 -33.70724 36440 ft 430 kts 261°
2026-05-08 07:11 53.35923 -33.80285 36441 ft 429 kts 261°
2026-05-08 07:12 53.34138 -33.89799 36438 ft 428 kts 261°
2026-05-08 07:12 53.32348 -33.99293 36434 ft 427 kts 261°
2026-05-08 07:13 53.30557 -34.08748 36430 ft 426 kts 261°
2026-05-08 07:13 53.28761 -34.18179 36426 ft 425 kts 260°
2026-05-08 07:14 53.26961 -34.27586 36424 ft 425 kts 260°
2026-05-08 07:14 53.25158 -34.36963 36422 ft 424 kts 260°
2026-05-08 07:15 53.23347 -34.46336 36420 ft 424 kts 260°
2026-05-08 07:15 53.21529 -34.55695 36419 ft 424 kts 260°
2026-05-08 07:16 53.19706 -34.65041 36421 ft 424 kts 259°
2026-05-08 07:16 53.17873 -34.74388 36417 ft 424 kts 259°
2026-05-08 07:17 53.16037 -34.83713 36425 ft 424 kts 259°
2026-05-08 07:17 53.14203 -34.92977 36421 ft 424 kts 259°
2026-05-08 07:18 53.12350 -35.02297 36423 ft 424 kts 259°
2026-05-08 07:18 53.10475 -35.11678 36428 ft 424 kts 259°
2026-05-08 07:19 53.08615 -35.20943 36430 ft 424 kts 258°
2026-05-08 07:19 53.06738 -35.30246 36425 ft 425 kts 258°
2026-05-08 07:20 53.04853 -35.39545 36425 ft 425 kts 258°
2026-05-08 07:20 53.02959 -35.48842 36427 ft 425 kts 258°
2026-05-08 07:21 53.01060 -35.58124 36420 ft 425 kts 258°
2026-05-08 07:21 52.99152 -35.67400 36421 ft 424 kts 258°
2026-05-08 07:22 52.97237 -35.76666 36421 ft 424 kts 257°
2026-05-08 07:22 52.95317 -35.85916 36416 ft 424 kts 257°
2026-05-08 07:23 52.93391 -35.95153 36415 ft 424 kts 257°
2026-05-08 07:23 52.91459 -36.04378 36412 ft 424 kts 257°
2026-05-08 07:24 52.89522 -36.13582 36407 ft 423 kts 257°
2026-05-08 07:24 52.87576 -36.22786 36406 ft 423 kts 257°
2026-05-08 07:25 52.85639 -36.31904 36407 ft 423 kts 257°
2026-05-08 07:26 52.82701 -36.45661 36409 ft 422 kts 257°
2026-05-08 07:26 52.80736 -36.54813 36401 ft 422 kts 256°
2026-05-08 07:27 52.78766 -36.63944 36403 ft 422 kts 256°
2026-05-08 07:27 52.76788 -36.73069 36396 ft 422 kts 256°
2026-05-08 07:28 52.74806 -36.82176 36395 ft 421 kts 256°
2026-05-08 07:28 52.72818 -36.91266 36393 ft 421 kts 256°
2026-05-08 07:29 52.71163 -36.98804 36396 ft 421 kts 256°
2026-05-08 07:29 52.69166 -37.07868 36394 ft 420 kts 256°
2026-05-08 07:30 52.67164 -37.16912 36394 ft 420 kts 256°
2026-05-08 07:30 52.65154 -37.25951 36394 ft 420 kts 256°
2026-05-08 07:31 52.63140 -37.34971 36393 ft 419 kts 256°
2026-05-08 07:31 52.61122 -37.43971 36392 ft 419 kts 255°
2026-05-08 07:32 52.59097 -37.52963 36392 ft 419 kts 255°
2026-05-08 07:32 52.57068 -37.61934 36388 ft 419 kts 255°
2026-05-08 07:33 52.55034 -37.70887 36382 ft 418 kts 255°
2026-05-08 07:33 52.52992 -37.79837 36383 ft 418 kts 255°
2026-05-08 07:34 52.50947 -37.88765 36380 ft 417 kts 255°
2026-05-08 07:34 52.48895 -37.97682 36381 ft 417 kts 255°
2026-05-08 07:35 52.46857 -38.06508 36375 ft 417 kts 255°
2026-05-08 07:35 52.44797 -38.15385 36375 ft 416 kts 255°
2026-05-08 07:36 52.42732 -38.24250 36369 ft 416 kts 255°
2026-05-08 07:36 52.40664 -38.33091 36366 ft 416 kts 255°
2026-05-08 07:37 52.38587 -38.41933 36362 ft 415 kts 255°
2026-05-08 07:37 52.36507 -38.50753 36359 ft 415 kts 254°
2026-05-08 07:38 52.34418 -38.59571 36355 ft 415 kts 254°
2026-05-08 07:38 52.32328 -38.68360 36354 ft 415 kts 254°
2026-05-08 07:39 52.30229 -38.77150 36350 ft 415 kts 254°
2026-05-08 07:39 52.28124 -38.85932 36353 ft 415 kts 254°
2026-05-08 07:40 52.26011 -38.94711 36353 ft 415 kts 254°
2026-05-08 07:40 52.23893 -39.03473 36352 ft 415 kts 254°
2026-05-08 07:41 52.21768 -39.12233 36354 ft 415 kts 254°
2026-05-08 07:41 52.19638 -39.20975 36348 ft 415 kts 254°
2026-05-08 07:42 52.17518 -39.29641 36346 ft 415 kts 254°
2026-05-08 07:42 52.15373 -39.38380 36348 ft 415 kts 254°
2026-05-08 07:43 52.13218 -39.47121 36339 ft 415 kts 253°
2026-05-08 07:43 52.11061 -39.55836 36347 ft 415 kts 253°
2026-05-08 07:44 52.08897 -39.64560 36342 ft 416 kts 253°
2026-05-08 07:44 52.06733 -39.73263 36336 ft 416 kts 253°
2026-05-08 07:45 52.04572 -39.81922 36335 ft 416 kts 253°
2026-05-08 07:45 52.02392 -39.90624 36330 ft 416 kts 253°
2026-05-08 07:46 52.00203 -39.99328 36328 ft 417 kts 253°
2026-05-08 07:46 51.98502 -40.08216 36318 ft 410 kts 262°
2026-05-08 07:47 51.97292 -40.17262 36321 ft 411 kts 262°
2026-05-08 07:47 51.95990 -40.26296 36322 ft 412 kts 261°
2026-05-08 07:48 51.94623 -40.35330 36320 ft 413 kts 261°
2026-05-08 07:48 51.93238 -40.44368 36321 ft 414 kts 261°
2026-05-08 07:49 51.91844 -40.53418 36321 ft 414 kts 261°
2026-05-08 07:49 51.90438 -40.62487 36318 ft 415 kts 260°
2026-05-08 07:50 51.89020 -40.71561 36321 ft 416 kts 260°
2026-05-08 07:50 51.87591 -40.80649 36318 ft 417 kts 260°
2026-05-08 07:51 51.86153 -40.89740 36316 ft 417 kts 260°
2026-05-08 07:51 51.84706 -40.98836 36326 ft 418 kts 260°
2026-05-08 07:52 51.83249 -41.07945 36324 ft 418 kts 259°
2026-05-08 07:52 51.81784 -41.17058 36324 ft 419 kts 259°
2026-05-08 07:53 51.80312 -41.26160 36332 ft 419 kts 259°
2026-05-08 07:53 51.78844 -41.35196 36311 ft 418 kts 259°
2026-05-08 07:54 51.77364 -41.44250 36314 ft 416 kts 259°
2026-05-08 07:54 51.75880 -41.53285 36311 ft 416 kts 259°
2026-05-08 07:55 51.74390 -41.62310 36299 ft 416 kts 259°
2026-05-08 07:55 51.72894 -41.71319 36309 ft 415 kts 259°
2026-05-08 07:56 51.71391 -41.80321 36299 ft 415 kts 259°
2026-05-08 07:56 51.69885 -41.89296 36299 ft 415 kts 258°
2026-05-08 07:57 51.68372 -41.98267 36308 ft 414 kts 258°
2026-05-08 07:57 51.66854 -42.07218 36307 ft 414 kts 258°
2026-05-08 07:58 51.65334 -42.16140 36304 ft 413 kts 258°
2026-05-08 07:58 51.63807 -42.25055 36304 ft 412 kts 258°
2026-05-08 07:59 51.62277 -42.33936 36300 ft 411 kts 258°
2026-05-08 07:59 51.60745 -42.42795 36296 ft 411 kts 258°
2026-05-08 08:00 51.59207 -42.51635 36292 ft 410 kts 258°
2026-05-08 08:00 51.57668 -42.60444 36288 ft 409 kts 258°
2026-05-08 08:01 51.56125 -42.69229 36282 ft 408 kts 258°
2026-05-08 08:01 51.54577 -42.77999 36278 ft 407 kts 258°
2026-05-08 08:02 51.53025 -42.86748 36275 ft 407 kts 258°
2026-05-08 08:02 51.51469 -42.95480 36270 ft 406 kts 258°
2026-05-08 08:03 51.49920 -43.04126 36266 ft 406 kts 258°
2026-05-08 08:03 51.48356 -43.12822 36263 ft 405 kts 258°
2026-05-08 08:04 51.46787 -43.21494 36259 ft 405 kts 258°
2026-05-08 08:04 51.45213 -43.30160 36258 ft 404 kts 258°
2026-05-08 08:05 51.43635 -43.38803 36259 ft 404 kts 258°
2026-05-08 08:05 51.42053 -43.47431 36257 ft 404 kts 258°
2026-05-08 08:06 51.40460 -43.56075 36252 ft 405 kts 258°
2026-05-08 08:06 51.38860 -43.64718 36251 ft 404 kts 258°
2026-05-08 08:07 51.37254 -43.73352 36247 ft 405 kts 258°
2026-05-08 08:07 51.35641 -43.81982 36247 ft 405 kts 258°
2026-05-08 08:08 51.34018 -43.90625 36243 ft 406 kts 258°
2026-05-08 08:08 51.32388 -43.99267 36243 ft 406 kts 258°
2026-05-08 08:09 51.30751 -44.07909 36246 ft 406 kts 258°
2026-05-08 08:09 51.29108 -44.16541 36247 ft 406 kts 258°
2026-05-08 08:10 51.27456 -44.25178 36241 ft 406 kts 258°
2026-05-08 08:10 51.25798 -44.33810 36237 ft 406 kts 257°
2026-05-08 08:11 51.24136 -44.42424 36234 ft 406 kts 257°
2026-05-08 08:11 51.22469 -44.51027 36228 ft 406 kts 257°
2026-05-08 08:12 51.20796 -44.59616 36222 ft 405 kts 257°
2026-05-08 08:12 51.19119 -44.68189 36221 ft 405 kts 257°
2026-05-08 08:13 51.17439 -44.76741 36213 ft 404 kts 257°
2026-05-08 08:13 51.15753 -44.85287 36212 ft 404 kts 257°
2026-05-08 08:14 51.14349 -44.92373 36207 ft 403 kts 257°
2026-05-08 08:14 51.12658 -45.00876 36204 ft 403 kts 257°
2026-05-08 08:15 51.10961 -45.09365 36200 ft 402 kts 257°
2026-05-08 08:15 51.09262 -45.17833 36202 ft 401 kts 257°
2026-05-08 08:16 51.07559 -45.26280 36197 ft 401 kts 257°
2026-05-08 08:16 51.05852 -45.34715 36196 ft 400 kts 257°
2026-05-08 08:17 51.04139 -45.43138 36474 ft 400 kts 257°
2026-05-08 08:17 51.03283 -45.47326 36767 ft 397 kts 258°
2026-05-08 08:17 51.02433 -45.51478 37045 ft 394 kts 258°
2026-05-08 08:17 51.01585 -45.55608 37302 ft 392 kts 258°
2026-05-08 08:18 51.00743 -45.59707 37531 ft 390 kts 258°
2026-05-08 08:18 50.99902 -45.63797 37739 ft 389 kts 258°
2026-05-08 08:18 50.99063 -45.67867 37950 ft 387 kts 258°
2026-05-08 08:18 50.98226 -45.71924 38144 ft 386 kts 259°
2026-05-08 08:19 50.97390 -45.75967 38183 ft 385 kts 259°
2026-05-08 08:19 50.95721 -45.84017 38182 ft 384 kts 258°
2026-05-08 08:20 50.94046 -45.92061 38183 ft 384 kts 258°
2026-05-08 08:20 50.92365 -46.00094 38179 ft 384 kts 258°
2026-05-08 08:21 50.90677 -46.08134 38176 ft 384 kts 258°
2026-05-08 08:21 50.88985 -46.16160 38180 ft 384 kts 258°
2026-05-08 08:22 50.87287 -46.24182 38177 ft 384 kts 258°
2026-05-08 08:22 50.85583 -46.32202 38173 ft 384 kts 258°
2026-05-08 08:23 50.83881 -46.40178 38161 ft 382 kts 258°